Regional Weather Roundup
Issued by NWS Lake Charles, LA

Home | Current Version | Previous Version | Text Only | Print | Product List | Glossary On
Versions: 1 2 3 4 5 6 7 8 9 10 11 12 13 14 15 16 17 18 19 20 21 22 23 24 25 26 27
000
ASUS44 KLCH 251510
RWRLCH
REGIONAL WEATHER ROUNDUP
NATIONAL WEATHER SERVICE LAKE CHARLES LA
1000 AM CDT TUE JUL 25 2017

Note: "fair" indicates few or no clouds below 12,000 feet with no
significant weather and/or obstructions to visibility.


ACROSS SOUTHEAST TEXAS

CITY           SKY/WX    TMP DP  RH WIND       PRES   REMARKS
BEAUMONT       CLOUDY    84  77  79 S7        30.12R
BEAUMONT CITY  FAIR      84  76  76 MISG      30.13S
ORANGE         CLOUDY    85  78  81 S5        30.14S
JASPER         CLOUDY    84  78  82 S6        30.16R
$$

ACROSS CENTRAL LOUISIANA

CITY           SKY/WX    TMP DP  RH WIND       PRES   REMARKS
LEESVILLE      CLOUDY    79  76  89 SW5       30.14R
FULLERTON      FAIR      83  77  82 VRB5      30.12R
ALEXANDRIA INT CLOUDY    81  77  88 W3        30.12R
ESLER FIELD    CLOUDY    82  76  81 W7        30.14R
DERIDDER       FAIR      82  80  95 SW5       30.16R
OAKDALE        CLOUDY    81  77  89 CALM      30.15R
OPELOUSAS      FAIR      80  77  90 CALM      30.14R
$$

ACROSS SOUTHWEST AND SOUTH CENTRAL LOUISIANA

CITY           SKY/WX    TMP DP  RH WIND       PRES   REMARKS
SULPHUR        CLOUDY    84  77  80 CALM      30.14S
LAKE CHARLES   CLOUDY    83  79  88 CALM      30.13S
CHENNAULT INT  NOT AVBL
CAMERON PHI    SUNNY     84  77  79 S9        30.13R
DEQUINCY       FAIR      80  76  87 CALM      30.14S
JENNINGS       FAIR      82  78  85 SW7       30.14S
LAFAYETTE      CLOUDY    83  78  85 SW7       30.14R
NEW IBERIA     CLOUDY    85  77  77 SW8       30.15R
ABBEVILLE      FAIR      84  81  89 SW12      30.15R
PATTERSON      MOSUNNY   86  78  77 W10       30.16R
SALT POINT       N/A     86  77  74 SW7       30.13R
$$

SELECTED SITES ACROSS THE REGION

CITY           SKY/WX    TMP DP  RH WIND       PRES   REMARKS
HOUSTON BUSH   CLOUDY    87  76  69 S8        30.12R
HOUSTON HOBBY  CLOUDY    86  76  71 S5        30.11R
GALVESTON      CLOUDY    85  78  80 S8        30.12R
COLLEGE STAT   PTSUNNY   85  75  72 S13       30.10F
CONROE         SUNNY     85  75  72 S10       30.12S
HUNTSVILLE     CLOUDY    84  74  71 S10       30.12S
LUFKIN         MOSUNNY   83  76  79 S10       30.13S
SHREVEPORT     MOSUNNY   86  75  69 SW12      30.12R
MONROE         CLOUDY    84  74  71 W12       30.12S
NATCHEZ MS     NOT AVBL
BATON ROUGE    CLOUDY    81  77  88 W5        30.15R
N.O. INTL ARPT PTSUNNY   85  76  74 VRB7      30.15R
SLIDELL        PTSUNNY   85  77  77 SW8       30.14S
$$

MARINE REPORTS

STATION/POSITION TIME  SKY/WX   TEMP    WIND        PRES    VSBY
                                AIR SEA DIR/SP/G
                 (UTC)          (F)     (DEG/KT/KT) (MB)    (MI)
BUOY 30 S HIGH I 1350            85 86  180/ 12/ 14 1019.6
WVE H/P(F/S)=  3/ 6

SEA RIM ST PARK  1500            85     180/  8/ 10 1020.8R
PORT ARTHUR      1448            84 86  200/  5/  9 1020.3R
SABINE PASS N    1448            86 87  190/ 10/ 13 1021.6R
TEXAS POINT      NOT AVBL
CALCASIEU PASS   1448            84 84  220/ 10/ 11 1019.6R
LK CHARLES BEACH 1448            83 85              1020.9R
MARSH ISLAND     NOT AVBL
FRESH WATER LOCK 1448            84 84  200/  7/ 10 1020.8R
AMERADA PASS     1448            85 84  220/  2/  6 1021.0R
$$




USA.gov is the U.S. government's official web portal to all federal, state and local government web resources and services.